www.pogodaiklimat.ru

Погода и климат >> Архив погоды >> Иран >> Shiraz


ПОГОДА в Shiraz

  • Прогноз погоды в Shiraz
  • Монитор погоды в Shiraz
  • Климат города

АРХИВ ПОГОДЫ в Shiraz

Время (UTC), дата Ветер
(напр.,м/с)
 
Видим.   Явления Облачность Т
(С)
Тd
(С)
f
(%)
Тe
(С)
Тes
(С)
Комфортность P
(гПа)
Po
(гПа)
Тmin
(С)
Tmax
(С)
R
(мм)
R24
(мм)
S
(см)
09 13.09 С 4 12 км ясно +35.6 -6.6 6 +31 +43 жарко 1004.9 852.4
12 13.09 З 2 12 км ясно +37.2 -10.9 4 +33 +39 жарко 1003.4 850.8
15 13.09 штиль 0 12 км ясно +29.4 -2.3 13 +26 +26 жарко 1004.5 850.2 +37.4
18 13.09 штиль 0 12 км ясно +24.6 +0.7 21 +23 +23 комфорт 1003.4 850.9
21 13.09 штиль 0 12 км ясно +23.0 -1.2 20 +22 +22 комфорт 1002.0 851.0
00 14.09 С 3 12 км ясно +23.8 -0.3 20 +23 +23 комфорт 1002.3 851.0
03 14.09 З 2 10 км 1/0
[Ci fib]
+20.6 -0.3 25 +21 +22 комфорт 1006.4 851.9 +19.0
06 14.09 штиль 0 10 км ясно +31.8 -3.0 10 +28 +43 жарко 1005.9 852.9
09 14.09 ЮВ 3 10 км ясно +36.0 -2.9 8 +32 +46 жарко 1003.6 851.6
12 14.09 ЮВ 3 10 км 1/1 1200 м
[Cu hum]
+36.4 -5.9 6 +32 +37 жарко 1001.7 850.2
15 14.09 штиль 0 10 км 1/1 1000 м
[Cu hum]
+30.0 -4.3 10 +26 +26 жарко 1004.1 850.0 +37.0
18 14.09 З 2 10 км 1/0
[Ac trans]
+26.6 -0.1 17 +25 +25 комфорт 1003.4 851.3
21 14.09 штиль 0 10 км ясно +23.2 +3.2 27 +23 +23 комфорт 1002.9 851.3
00 15.09 З 2 10 км ясно +20.2 +4.0 34 +21 +21 комфорт 1003.6 851.2
03 15.09 З 2 10 км ясно +19.0 +6.4 44 +20 +20 1006.6 852.1 +18.8
06 15.09 штиль 0 10 км ясно +31.0 -0.8 13 +28 +43 жарко 1005.8 853.2
09 15.09 штиль 0 10 км 1/1 1350 м
[Cu hum]
+34.8 -0.8 10 +31 +52 опасность
солнечного
удара
1004.1 851.8
12 15.09 В 3 10 км 1/1 1350 м
[Sc diur, vesp]
+36.0 -5.0 7 +32 +37 жарко 1002.4 849.9
15 15.09 штиль 0 10 км 1/1 1000 м
[Sc diur, vesp]
+28.8 +1.8 18 +27 +27 жарко 1004.4 849.8 +37.2
18 15.09 СЗ 3 10 км ясно +30.0 +6.1 22 +29 +29 жарко 1002.3 851.2
21 15.09 СЗ 2 10 км ясно +27.2 +8.8 31 +27 +27 жарко 1001.4 851.0
00 16.09 З 2 10 км ясно +21.8 +9.8 46 +23 +23 комфорт 1002.4 850.7
03 16.09 штиль 0 7000 м мгла ясно +19.6 +9.4 52 +20 +21 1006.2 851.8 +18.8
06 16.09 штиль 0 6000 м мгла ясно +30.8 +7.5 23 +30 +44 жарко 1003.9 852.6
09 16.09 штиль 0 10 км 1/1 1200 м
[Cu hum]
+35.0 +1.4 12 +32 +52 опасность
солнечного
удара
1001.5 850.6
12 16.09 нст 1 10 км 1/1 1200 м
[Sc]
+37.2 -5.2 7 +33 +40 жарко 1000.5 848.9
15 16.09 штиль 0 10 км 1/1 1050 м
[Cu med, cong]
+29.4 +1.7 17 +27 +27 жарко 1002.7 848.6 +37.8
18 16.09 З 2 10 км ясно +29.8 +6.3 23 +29 +29 жарко 1001.0 850.0
21 16.09 штиль 0 10 км ясно +25.2 +7.7 33 +25 +25 комфорт 999.8 849.7
00 17.09 З 2 10 км ясно +22.6 +8.6 41 +24 +24 комфорт 1000.6 849.6
03 17.09 штиль 0 10 км ясно +18.0 +8.3 53 +18 +18 1004.9 850.4 +17.8
06 17.09 штиль 0 10 км ясно +30.8 -0.4 13 +28 +42 жарко 1003.0 851.5
09 17.09 ЮВ 3 15 км 1/1 1200 м
[Cu hum]
+35.4 -10.1 5 +31 +43 жарко 1001.5 850.0
12 17.09 штиль 0 15 км 1/1 1200 м
[Cu hum]
+36.2 -6.5 6 +32 +39 жарко 1000.0 848.4
15 17.09 штиль 0 10 км 3/3 1200 м
[Cu hum Ci fib]
+31.0 +1.0 15 +28 +28 жарко 1002.4 848.3 +37.4
18 17.09 штиль 0 10 км 4/3 1200 м
[Sc diur, vesp Ci sp]
+27.2 +10.7 36 +28 +28 жарко 1001.3 849.9
21 17.09 штиль 0 10 км 4/1 1200 м
[Sc diur, vesp Ci sp]
+25.8 +11.3 40 +27 +27 жарко 1000.2 849.7
00 18.09 штиль 0 10 км 3/0
[Ci fib]
+22.2 +11.1 49 +24 +24 комфорт 1001.2 849.9
03 18.09 штиль 0 7000 м мгла ясно +20.2 +11.4 57 +22 +22 комфорт 1004.9 851.4 +18.6
06 18.09 штиль 0 5000 м пыль 1/1 1000 м
[Cu hum]
+30.0 +10.7 30 +30 +43 жарко 1004.5 852.4
09 18.09 СВ 2 5000 м пыль 4/4 1050 м
[Cu med, cong]
+33.2 +9.0 23 +32 +42 жарко 1002.3 850.9
12 18.09 СВ 4 5000 м гроза без осадков 10/10 900 м
[Cb calv]
+31.4 +8.2 24 +28 +28 жарко 1003.3 850.2
15 18.09 З 3 8000 м гроза, ливневой дождь 10/10 900 м
[Cb calv]
+27.4 +8.6 31 +27 +27 жарко 1008.8 853.6 +36.0
18 18.09 СВ 2 8000 м мгла {гроза, дождь} 5/5 1200 м
[Sc]
+21.8 +10.2 48 +24 +24 комфорт 1008.9 854.8 0.0
21 18.09 СВ 2 8000 м мгла 5/5 1200 м
[Sc Ci fib]
+20.8 +9.3 48 +23 +23 комфорт 1006.1 853.0
00 19.09 С 2 8000 м мгла ясно +18.0 +10.4 61 +19 +19 1007.3 853.0
03 19.09 ЮЗ 2 12 км 1/0
[Ac trans]
+15.2 +8.6 65 +15 +15 1009.9 853.4 +14.4
06 19.09 В 2 12 км ясно +25.8 +8.0 32 +26 +36 жарко 1009.7 854.4
09 19.09 В 2 10 км 1/1 1200 м
[Cu med, cong]
+32.6 +2.4 15 +30 +45 жарко 1006.0 852.5
12 19.09 З 3 10 км 5/5 1050 м
[Cb calv]
+34.0 -0.4 11 +30 +33 жарко 1004.0 850.4
15 19.09 З 4 10 км 4/4 1200 м
[Cu med, cong]
+31.2 +0.6 14 +28 +28 жарко 1005.6 850.4 +35.2
18 19.09 З 4 10 км 1/1 1200 м
[Sc diur, vesp]
+28.6 +6.4 25 +28 +28 жарко 1005.0 852.0
21 19.09 штиль 0 10 км 3/0
[Ci sp]
+25.2 +10.0 38 +26 +26 жарко 1003.1 851.3
00 20.09 штиль 0 10 км 3/0
[Ci sp]
+21.2 +9.8 48 +23 +23 комфорт 1003.9 851.4
03 20.09 штиль 0 10 км ясно +19.0 +6.8 45 +19 +20 1006.6 852.4 +17.4
06 20.09 В 2 10 км ясно +28.8 +6.7 25 +28 +38 жарко 1006.2 853.6

 

Местоположение метеостанции Shiraz (Иран): широта 29.53 долгота 52.53 высота над уровнем моря 1481 м.

В архиве по умолчанию представлена погода в Shiraz за последнюю неделю. Архивные данные за месяц целиком и за предыдущие месяцы, начиная с января 2011 года, Вы можете получить, выбрав интересующий диапазон дат из раскрывающегося списка и нажав кнопку "Ввод!".


*Определитесь, кто Вы:
робот инопланетянин человек

Внимание! Время в таблицах - всемирное. Для получения местного времени необходимо прибавить поправку, которая в Shiraz равна 3.5 ч.

Смотрите также архив погоды в соседних городах и на ближайших метеорологических станциях:

Погода в Fasa (Иран) (128 км)
Погода в Yasuj (Иран) (156 км)
Погода в Bushehr (Иран) (175 км)
Погода в Bushehr Airport (Иран) (176 км)
Погода в Abadeh (Иран) (184 км)
Погода в Gach Saran (Иран) (197 км)
Погода в Bandar Deyr (Иран) (198 км)
Погода в Khark (Иран) (216 км)
Погода в Omidieh (Иран) (308 км)
Погода в Sirjan (Иран) (309 км)

Пояснения к столбцам:

Ветер - указаны скорость ветра в м/с - средняя за 10 мин, порывы в срок и между сроками (в фигурных скобках) и направление, откуда дует ветер: С - северный, СВ - северо-восточный, В - восточный, ЮВ - юго-восточный, Ю - южный, ЮЗ - юго-западный, З - западный, СЗ - северо-западный.
Видимость - горизонтальная дальность видимости в метрах или километрах. При видимости от 1 до 10 км при отсутствии осадков обычно наблюдается дымка, при ухудшении видимости до 1 км и менее - туман. В сухую погоду видимость может ухудшаться дымом, пылью или мглою.
Явления - указаны атмосферные явления, наблюдавшиеся в срок или в последний час перед сроком; фигурными скобками обозначены явления, наблюдавшиеся между сроками (за 1-3 часа до срока); квадратными скобками обозначены град или гололедные отложения с указанием их диаметра в мм.
Облачность - указаны через наклонную черту общая и нижняя облачность в баллах и высота нижней границы облаков в метрах; квадратными скобками обозначены формы облаков: Ci - перистые, Cs - перисто-слоистые, Cc - перисто-кучевые, Ac - высококучевые, As - высокослоистые, Sc - слоисто-кучевые, Ns - слоисто-дождевые, Cu - кучевые, Cb - кучево-дождевые. Подробнее классификацию облаков см. в Атласе облаков (PDF).
T - Температура воздуха - температура, измеренная на высоте 2 м над землей.
Td - Температура точки росы - температура, при понижении до которой содержащийся в воздухе водяной пар достигнет насыщения.
f - Относительная влажность воздуха - влажноcть воздуха, измеренная на высоте 2 м над землей.
Te - Эффективная температура - температура, которую ощущает одетый по сезону человек в тени. Характеристика душности погоды. При расчете учитывается влияние влажности воздуха и скорости ветра на теплоощущения человека.
Tes - Эффективная температура на солнце - температура, которую ощущает человек, с поправкой на солнечный нагрев. Характеристика знойности погоды. Зависит от высоты солнца над горизонтом, облачности и скорости ветра. Ночью, в пасмурную погоду, а также при ветре 12 м/с и более поправка равна нулю.
P - Атмосферное давление - приведенное к уровню моря атмосферное давление.
Po - Атмосферное давление - измеренное на уровне метеостанции атмосферное давление.
Tmin - Минимальная температура - минимум температуры воздуха на высоте 2 м над землей.
Tmax - Максимальная температура - максимум температуры воздуха на высоте 2 м над землей.
R - Количество осадков - Количество выпавших осадков за период времени, мм. При наведении курсора мыши на число - период времени, за который выпало указанное количество осадков.
R24 - Количество осадков - Количество выпавших осадков за 24 часа, мм.
S - Снежный покров - Высота снежного покрова, см. При наведении курсора мыши на число - состояние снежного покрова и степень покрытия местности в баллах.